This is the latest recevied weather packets stored in our database for station/object SV3CQY. If no packets are shown the sender has not sent any weather packets the latest 10 day(s).
| Time | Temp. | Humidity | Pressure | Rain* | Wind** | Luminosity | Snow |
|---|---|---|---|---|---|---|---|
| 1778056811 | 22.78° C | 38% | 1015.7 hPa | 0 mm | - | - | - |
| 1778055328 | 22.22° C | 41% | 1015.8 hPa | 0 mm | - | - | - |
| 1778054713 | 21.67° C | 43% | 1015.7 hPa | 0 mm | - | - | - |
| 1778054433 | 21.67° C | 48% | 1015.7 hPa | 0 mm | - | - | - |
| 1778054108 | 21.11° C | 54% | 1015.7 hPa | 0 mm | - | - | - |
| 1778050826 | 19.44° C | 58% | 1015.9 hPa | 0 mm | - | - | - |
| 1778050208 | 18.33° C | 70% | 1016 hPa | 0 mm | - | - | - |
| 1778049027 | 17.22° C | 80% | 1016.1 hPa | 0 mm | - | - | - |
| 1778047511 | 17.22° C | 81% | 1015.9 hPa | 0 mm | - | - | - |
| 1778046615 | 16.67° C | 81% | 1015.8 hPa | 0 mm | - | - | - |
| 1778045710 | 16.67° C | 82% | 1015.8 hPa | 0 mm | - | - | - |
| 1778043631 | 16.11° C | 83% | 1015.7 hPa | 0 mm | - | - | - |
| 1778041827 | 16.11° C | 82% | 1015.6 hPa | 0 mm | - | - | - |
| 1778040926 | 15° C | 79% | 1015.7 hPa | 0 mm | - | - | - |
| 1778040048 | 14.44° C | 69% | 1015.5 hPa | 0 mm | - | - | - |
| 1778038226 | 13.33° C | 68% | 1015.4 hPa | 0 mm | - | - | - |
| 1778035210 | 15° C | 64% | 1015.4 hPa | 0 mm | - | - | - |
| 1778034912 | 15° C | 65% | 1015.4 hPa | 0 mm | - | - | - |
| 1778033728 | 15.56° C | 66% | 1015.4 hPa | 0 mm | - | - | - |
| 1778033112 | 15.56° C | 66% | 1015.5 hPa | 0 mm | - | - | - |
| 1778031932 | 16.11° C | 75% | 1015.5 hPa | 0 mm | - | - | - |
| 1778031613 | 16.67° C | 73% | 1015.6 hPa | 0 mm | - | - | - |
| 1778029227 | 16.67° C | 73% | 1015.7 hPa | 0 mm | - | - | - |
| 1778026527 | 16.67° C | 75% | 1016 hPa | 0 mm | - | - | - |
| 1778025911 | 17.22° C | 69% | 1016.1 hPa | 0 mm | - | - | - |
* Rain latest hour (hover to see other rain measurements)
** Current wind speed in m/s (hover to see current wind gust speed)